ANZ420 NZAA-YSSY

Flight info

Callsign ANZ420
Flight time N/A
Altitude 34000
Route VELMO DCT 38S163E/N0487F360 DCT PLUGA DCT RIKNI N774 MARLN
Aircraft B77W/H-SDE1E2E3FGHIJ2J3J4J5M1RWXY/LB1D1

Departure

Time N/A
Airport Auckland International Airport (NZAA)

Arrival

Time 2026-05-04 18:40
Airport Sydney Kingsford Smith International Airport (YSSY)
Time Latitude Longitude Altitude Speed Heading
2026-05-04 15:50 -37.44534 173.81789 29832 ft 492 kts 252°
2026-05-04 15:50 -37.45741 173.77782 30566 ft 490 kts 252°
2026-05-04 15:51 -37.46958 173.73743 31395 ft 486 kts 251°
2026-05-04 15:51 -37.48132 173.69836 32088 ft 483 kts 251°
2026-05-04 15:51 -37.49319 173.65884 32627 ft 483 kts 251°
2026-05-04 15:51 -37.50509 173.61911 33119 ft 484 kts 250°
2026-05-04 15:52 -37.51702 173.57928 33617 ft 483 kts 250°
2026-05-04 15:52 -37.52961 173.53713 34143 ft 482 kts 250°
2026-05-04 15:52 -37.54284 173.49281 34459 ft 485 kts 250°
2026-05-04 15:52 -37.55504 173.45189 34492 ft 484 kts 250°
2026-05-04 15:53 -37.58040 173.36662 34496 ft 482 kts 250°
2026-05-04 15:53 -37.60569 173.28128 34498 ft 482 kts 250°
2026-05-04 15:54 -37.63118 173.19499 34489 ft 483 kts 250°
2026-05-04 15:54 -37.65506 173.11392 34484 ft 483 kts 250°
2026-05-04 15:55 -37.67839 173.03445 34485 ft 484 kts 250°
2026-05-04 15:55 -37.70162 172.95511 34485 ft 485 kts 250°
2026-05-04 15:56 -37.72478 172.87576 34489 ft 486 kts 250°
2026-05-04 15:56 -37.74815 172.79550 34497 ft 484 kts 250°
2026-05-04 15:57 -37.77122 172.71600 34493 ft 484 kts 250°
2026-05-04 15:57 -37.79421 172.63657 34493 ft 484 kts 250°
2026-05-04 15:58 -37.81722 172.55678 34492 ft 485 kts 249°
2026-05-04 15:58 -37.84018 172.47697 34498 ft 484 kts 249°
2026-05-04 15:59 -37.86307 172.39716 34498 ft 484 kts 249°
2026-05-04 15:59 -37.88582 172.31761 34505 ft 484 kts 250°
2026-05-04 16:00 -37.90865 172.23752 34505 ft 483 kts 250°
2026-05-04 16:00 -37.93131 172.15781 34504 ft 482 kts 250°
2026-05-04 16:01 -37.95380 172.07843 34504 ft 482 kts 250°
2026-05-04 16:01 -37.97636 171.99860 34493 ft 482 kts 250°
2026-05-04 16:02 -37.99882 171.91885 34490 ft 482 kts 250°
2026-05-04 16:03 -38.03239 171.79924 34484 ft 481 kts 250°
2026-05-04 16:03 -38.05461 171.71979 34488 ft 482 kts 250°
2026-05-04 16:04 -38.07702 171.63939 34492 ft 482 kts 250°
2026-05-04 16:04 -38.11031 171.51947 34495 ft 481 kts 249°
2026-05-04 16:05 -38.13233 171.43988 34494 ft 481 kts 250°
2026-05-04 16:06 -38.16531 171.32022 34489 ft 480 kts 250°
2026-05-04 16:07 -38.20914 171.16029 34491 ft 481 kts 250°
2026-05-04 16:08 -38.25280 171.00001 34488 ft 480 kts 250°
2026-05-04 16:08 -38.27038 170.87552 34490 ft 482 kts 268°
2026-05-04 16:09 -38.27085 170.79022 34479 ft 481 kts 269°
2026-05-04 16:10 -38.27085 170.62053 34484 ft 481 kts 269°
2026-05-04 16:11 -38.27031 170.45033 34485 ft 482 kts 269°
2026-05-04 16:12 -38.26890 170.19586 34483 ft 480 kts 269°
2026-05-04 16:13 -38.26764 170.02667 34481 ft 480 kts 269°
2026-05-04 16:14 -38.26614 169.85761 34476 ft 480 kts 269°
2026-05-04 16:16 -38.26392 169.64661 34470 ft 477 kts 269°
2026-05-04 16:17 -38.26133 169.43660 34471 ft 477 kts 269°
2026-05-04 16:18 -38.25898 169.26770 34468 ft 477 kts 270°
2026-05-04 16:19 -38.25573 169.05818 34467 ft 475 kts 270°
2026-05-04 16:20 -38.25211 168.84906 34456 ft 475 kts 270°
2026-05-04 16:22 -38.24811 168.63974 34443 ft 476 kts 270°
2026-05-04 16:23 -38.24283 168.38840 34452 ft 474 kts 270°
2026-05-04 16:25 -38.23702 168.13802 34448 ft 473 kts 271°
2026-05-04 16:26 -38.22960 167.84674 34432 ft 471 kts 271°
2026-05-04 16:28 -38.22386 167.63882 34435 ft 472 kts 271°
2026-05-04 16:29 -38.21525 167.34907 34431 ft 470 kts 271°
2026-05-04 16:31 -38.20867 167.14221 34432 ft 469 kts 271°
2026-05-04 16:32 -38.20032 166.89488 34410 ft 470 kts 271°
2026-05-04 16:33 -38.19446 166.72986 34408 ft 469 kts 271°
2026-05-04 16:34 -38.18991 166.60620 34406 ft 468 kts 271°
2026-05-04 16:35 -38.18045 166.35918 34407 ft 469 kts 272°
2026-05-04 16:36 -38.17551 166.23540 34405 ft 468 kts 272°
2026-05-04 16:37 -38.17044 166.11166 34395 ft 470 kts 272°
2026-05-04 16:38 -38.16349 165.94701 34389 ft 469 kts 272°
2026-05-04 16:39 -38.15446 165.74066 34385 ft 468 kts 272°
2026-05-04 16:40 -38.14703 165.57672 34383 ft 468 kts 273°
2026-05-04 16:41 -38.13736 165.37073 34367 ft 469 kts 273°
2026-05-04 16:43 -38.12737 165.16553 34369 ft 466 kts 274°
2026-05-04 16:43 -38.12120 165.04242 34368 ft 465 kts 274°
2026-05-04 16:45 -38.10855 164.79747 34359 ft 467 kts 274°
2026-05-04 16:46 -38.09756 164.59242 34353 ft 466 kts 274°
2026-05-04 16:47 -38.08851 164.42836 34341 ft 468 kts 274°
2026-05-04 16:48 -38.07925 164.26465 34334 ft 468 kts 275°
2026-05-04 16:49 -38.06974 164.10068 34326 ft 469 kts 275°
2026-05-04 16:50 -38.05994 163.93565 34314 ft 470 kts 275°
2026-05-04 16:51 -38.05250 163.81288 34315 ft 468 kts 275°
2026-05-04 16:52 -38.04233 163.64842 34308 ft 468 kts 275°
2026-05-04 16:53 -38.03459 163.52576 34311 ft 467 kts 275°
2026-05-04 16:54 -38.02410 163.36253 34292 ft 465 kts 275°
2026-05-04 16:55 -38.01331 163.19842 35082 ft 466 kts 276°
2026-05-04 16:55 -38.00794 163.11810 36184 ft 455 kts 275°
2026-05-04 16:56 -38.00252 163.03816 36300 ft 457 kts 276°
2026-05-04 16:56 -37.97964 162.92172 36299 ft 455 kts 286°
2026-05-04 16:57 -37.95213 162.80696 36298 ft 453 kts 287°
2026-05-04 16:58 -37.91283 162.64684 36290 ft 453 kts 287°
2026-05-04 17:00 -37.85651 162.42068 36282 ft 450 kts 287°
2026-05-04 17:00 -37.82808 162.30743 36568 ft 450 kts 287°
2026-05-04 17:01 -37.80910 162.23209 36284 ft 444 kts 287°
2026-05-04 17:02 -37.77127 162.08272 36275 ft 445 kts 287°
2026-05-04 17:03 -37.74285 161.97108 36268 ft 446 kts 287°
2026-05-04 17:03 -37.71444 161.85998 36544 ft 448 kts 287°
2026-05-04 17:04 -37.69525 161.78517 36173 ft 443 kts 287°
2026-05-04 17:04 -37.67620 161.71117 36253 ft 447 kts 287°
2026-05-04 17:05 -37.63782 161.56274 36242 ft 446 kts 287°
2026-05-04 17:06 -37.60897 161.45169 36236 ft 447 kts 287°
2026-05-04 17:07 -37.58331 161.35335 36230 ft 446 kts 287°
2026-05-04 17:07 -37.56069 161.26700 36233 ft 445 kts 288°
2026-05-04 17:08 -37.53159 161.15630 36236 ft 444 kts 288°
2026-05-04 17:09 -37.51215 161.08264 36236 ft 445 kts 288°
2026-05-04 17:09 -37.49267 161.00899 36228 ft 444 kts 288°
2026-05-04 17:10 -37.44392 160.82568 36217 ft 444 kts 288°
2026-05-04 17:11 -37.42432 160.75236 36210 ft 443 kts 288°
2026-05-04 17:12 -37.39482 160.64238 36206 ft 443 kts 288°
2026-05-04 17:13 -37.34569 160.46024 36184 ft 441 kts 288°
2026-05-04 17:14 -37.30622 160.31482 36194 ft 442 kts 288°
2026-05-04 17:15 -37.27643 160.20558 36185 ft 442 kts 288°
2026-05-04 17:16 -37.23677 160.06087 36182 ft 442 kts 289°
2026-05-04 17:17 -37.19686 159.91602 36171 ft 440 kts 289°
2026-05-04 17:18 -37.15690 159.77182 36159 ft 440 kts 289°
2026-05-04 17:19 -37.11669 159.62747 36163 ft 441 kts 289°
2026-05-04 17:20 -37.07622 159.48299 36150 ft 439 kts 289°
2026-05-04 17:20 -37.04597 159.37550 36147 ft 439 kts 289°
2026-05-04 17:21 -37.00534 159.23180 36144 ft 440 kts 289°
2026-05-04 17:22 -36.98495 159.15994 36142 ft 439 kts 289°
2026-05-04 17:23 -36.94403 159.01636 36131 ft 439 kts 289°
2026-05-04 17:24 -36.91342 158.90944 36132 ft 438 kts 289°
2026-05-04 17:25 -36.87236 158.76671 36135 ft 437 kts 289°
2026-05-04 17:26 -36.83086 158.62315 36131 ft 437 kts 289°
2026-05-04 17:27 -36.77889 158.44446 36120 ft 436 kts 289°
2026-05-04 17:28 -36.73756 158.30319 36119 ft 435 kts 290°
2026-05-04 17:29 -36.67530 158.09170 36118 ft 435 kts 290°
2026-05-04 17:31 -36.62312 157.91569 36110 ft 435 kts 290°
2026-05-04 17:32 -36.57070 157.74000 36110 ft 434 kts 290°
2026-05-04 17:33 -36.52883 157.60043 36106 ft 433 kts 290°
2026-05-04 17:34 -36.48675 157.46088 36086 ft 430 kts 290°
2026-05-04 17:35 -36.43423 157.28764 36099 ft 429 kts 291°
2026-05-04 17:36 -36.41314 157.21838 36098 ft 430 kts 291°
2026-05-04 17:36 -36.39207 157.14935 36091 ft 428 kts 291°
2026-05-04 17:37 -36.37101 157.08054 36092 ft 429 kts 291°
2026-05-04 17:37 -36.34981 157.01143 36090 ft 430 kts 291°
2026-05-04 17:38 -36.32867 156.94266 36087 ft 427 kts 291°
2026-05-04 17:38 -36.30759 156.87424 36073 ft 427 kts 291°
2026-05-04 17:39 -36.27569 156.77106 36056 ft 426 kts 291°
2026-05-04 17:39 -36.25451 156.70274 36074 ft 428 kts 290°
2026-05-04 17:40 -36.23323 156.63428 36062 ft 425 kts 290°
2026-05-04 17:40 -36.21193 156.56589 36043 ft 425 kts 291°
2026-05-04 17:41 -36.19068 156.49783 36060 ft 426 kts 291°
2026-05-04 17:41 -36.16950 156.43016 36060 ft 423 kts 290°
2026-05-04 17:42 -36.14821 156.36229 36055 ft 424 kts 290°
2026-05-04 17:42 -36.12689 156.29450 36057 ft 424 kts 291°
2026-05-04 17:43 -36.10562 156.22700 36048 ft 423 kts 291°
2026-05-04 17:43 -36.08424 156.15935 36029 ft 423 kts 291°
2026-05-04 17:44 -36.06280 156.09163 36062 ft 423 kts 291°
2026-05-04 17:44 -36.04143 156.02431 36031 ft 422 kts 290°
2026-05-04 17:45 -36.02008 155.95717 36029 ft 420 kts 290°
2026-05-04 17:45 -35.99868 155.89008 36027 ft 418 kts 291°
2026-05-04 17:46 -35.97738 155.82342 36007 ft 419 kts 290°
2026-05-04 17:46 -35.95617 155.75720 36006 ft 418 kts 291°
2026-05-04 17:47 -35.93489 155.69090 36019 ft 416 kts 291°
2026-05-04 17:47 -35.91359 155.62471 36009 ft 415 kts 291°
2026-05-04 17:48 -35.89216 155.55823 36012 ft 415 kts 291°
2026-05-04 17:48 -35.87087 155.49237 36004 ft 414 kts 291°
2026-05-04 17:49 -35.84945 155.42624 36002 ft 415 kts 291°
2026-05-04 17:49 -35.82814 155.36058 36004 ft 414 kts 292°
2026-05-04 17:50 -35.80673 155.29478 36013 ft 413 kts 292°
2026-05-04 17:50 -35.78552 155.22974 36006 ft 412 kts 292°
2026-05-04 17:51 -35.76424 155.16460 36015 ft 411 kts 292°
2026-05-04 17:51 -35.74282 155.09923 36000 ft 410 kts 292°
2026-05-04 17:52 -35.72162 155.03461 35998 ft 411 kts 293°
2026-05-04 17:52 -35.70018 154.96944 35991 ft 408 kts 293°
2026-05-04 17:53 -35.67895 154.90505 35992 ft 411 kts 293°
2026-05-04 17:53 -35.65765 154.84056 35993 ft 408 kts 293°
2026-05-04 17:54 -35.63610 154.77547 35983 ft 411 kts 293°
2026-05-04 17:54 -35.61346 154.71140 35988 ft 411 kts 299°
2026-05-04 17:55 -35.58047 154.65440 35984 ft 410 kts 307°
2026-05-04 17:55 -35.54426 154.60056 35982 ft 410 kts 308°
2026-05-04 17:56 -35.50749 154.54680 35648 ft 412 kts 309°
2026-05-04 17:56 -35.48905 154.52013 35417 ft 412 kts 309°
2026-05-04 17:56 -35.47057 154.49350 35183 ft 412 kts 309°
2026-05-04 17:57 -35.45199 154.46684 34949 ft 413 kts 309°
2026-05-04 17:57 -35.43329 154.44006 34712 ft 414 kts 309°
2026-05-04 17:57 -35.41451 154.41324 34471 ft 419 kts 309°
2026-05-04 17:57 -35.39560 154.38626 34233 ft 420 kts 309°
2026-05-04 17:58 -35.37640 154.35890 33990 ft 417 kts 309°
2026-05-04 17:58 -35.35771 154.33231 33746 ft 415 kts 310°
2026-05-04 17:58 -35.33881 154.30543 33489 ft 420 kts 310°
2026-05-04 17:58 -35.31975 154.27838 33225 ft 422 kts 310°
2026-05-04 17:59 -35.30060 154.25122 32962 ft 424 kts 310°
2026-05-04 17:59 -35.28132 154.22389 32703 ft 424 kts 310°
2026-05-04 17:59 -35.24274 154.16927 32183 ft 427 kts 310°
2026-05-04 18:00 -35.22327 154.14175 31917 ft 427 kts 310°
2026-05-04 18:00 -35.20381 154.11427 31651 ft 429 kts 310°
2026-05-04 18:00 -35.18426 154.08667 31387 ft 430 kts 311°
2026-05-04 18:00 -35.16478 154.05919 31128 ft 431 kts 311°
2026-05-04 18:01 -35.14525 154.03168 30865 ft 432 kts 311°
2026-05-04 18:01 -35.12542 154.00375 30599 ft 434 kts 311°
2026-05-04 18:01 -35.10562 153.97589 30337 ft 434 kts 311°
2026-05-04 18:02 -35.06648 153.92090 29821 ft 428 kts 311°
2026-05-04 18:02 -35.04705 153.89362 29559 ft 426 kts 311°
2026-05-04 18:02 -35.02761 153.86636 29298 ft 425 kts 311°
2026-05-04 18:02 -35.00825 153.83923 29035 ft 425 kts 311°
2026-05-04 18:03 -34.99428 153.81967 28827 ft 424 kts 310°
2026-05-04 18:03 -34.97504 153.79274 28557 ft 422 kts 310°
2026-05-04 18:03 -34.95571 153.76572 28286 ft 421 kts 310°
2026-05-04 18:03 -34.93666 153.73910 28023 ft 419 kts 311°
2026-05-04 18:04 -34.91758 153.71246 27750 ft 418 kts 311°
2026-05-04 18:04 -34.89842 153.68573 27464 ft 416 kts 311°
2026-05-04 18:04 -34.86074 153.63321 26979 ft 413 kts 311°
2026-05-04 18:05 -34.84172 153.60667 26747 ft 413 kts 311°
2026-05-04 18:05 -34.82293 153.58055 26496 ft 412 kts 311°
2026-05-04 18:05 -34.80430 153.55467 26243 ft 409 kts 311°
2026-05-04 18:05 -34.78541 153.52846 25988 ft 408 kts 311°
2026-05-04 18:06 -34.74815 153.47678 25476 ft 407 kts 311°
2026-05-04 18:06 -34.72952 153.45096 25220 ft 405 kts 311°
2026-05-04 18:06 -34.71084 153.42509 24960 ft 404 kts 311°
2026-05-04 18:07 -34.69247 153.39967 24705 ft 403 kts 311°
2026-05-04 18:07 -34.67408 153.37425 24445 ft 402 kts 312°
2026-05-04 18:07 -34.65564 153.34878 24188 ft 402 kts 312°
2026-05-04 18:07 -34.63725 153.32340 23939 ft 401 kts 312°
2026-05-04 18:08 -34.61868 153.29776 23688 ft 399 kts 312°
2026-05-04 18:08 -34.60061 153.27284 23446 ft 398 kts 313°
2026-05-04 18:08 -34.58222 153.24751 23203 ft 398 kts 313°
2026-05-04 18:08 -34.56403 153.22249 22966 ft 397 kts 313°
2026-05-04 18:09 -34.52770 153.17252 22468 ft 393 kts 313°
2026-05-04 18:09 -34.49165 153.12302 21992 ft 390 kts 313°
2026-05-04 18:10 -34.47380 153.09853 21747 ft 386 kts 313°
2026-05-04 18:10 -34.45616 153.07434 21496 ft 383 kts 313°
2026-05-04 18:10 -34.43856 153.05023 21248 ft 382 kts 313°
2026-05-04 18:10 -34.42110 153.02634 20999 ft 380 kts 313°
2026-05-04 18:11 -34.40369 153.00253 20750 ft 378 kts 313°
2026-05-04 18:11 -34.38634 152.97881 20503 ft 375 kts 313°
2026-05-04 18:11 -34.36907 152.95522 20252 ft 373 kts 313°
2026-05-04 18:11 -34.35200 152.93192 20001 ft 372 kts 312°
2026-05-04 18:12 -34.33476 152.90839 19749 ft 370 kts 312°
2026-05-04 18:12 -34.31784 152.88533 19501 ft 367 kts 312°
2026-05-04 18:12 -34.30102 152.86241 19251 ft 366 kts 312°
2026-05-04 18:12 -34.28404 152.83928 18994 ft 364 kts 312°
2026-05-04 18:13 -34.26734 152.81657 18747 ft 360 kts 312°
2026-05-04 18:13 -34.25097 152.79430 18497 ft 348 kts 312°
2026-05-04 18:13 -34.21980 152.75194 17996 ft 328 kts 312°
2026-05-04 18:14 -34.20496 152.73180 17747 ft 320 kts 312°
2026-05-04 18:14 -34.19015 152.71172 17502 ft 318 kts 312°
2026-05-04 18:14 -34.17549 152.69185 17250 ft 317 kts 312°
2026-05-04 18:15 -34.14621 152.65218 16748 ft 316 kts 312°
2026-05-04 18:15 -34.11706 152.61275 16243 ft 315 kts 312°
2026-05-04 18:15 -34.10360 152.59222 15989 ft 314 kts 306°
2026-05-04 18:16 -34.09223 152.56950 15729 ft 313 kts 299°
2026-05-04 18:16 -34.08347 152.54564 15474 ft 315 kts 292°
2026-05-04 18:16 -34.07717 152.52025 15215 ft 316 kts 286°
2026-05-04 18:17 -34.07196 152.46774 14704 ft 317 kts 278°
2026-05-04 18:17 -34.07011 152.44119 14447 ft 315 kts 279°
2026-05-04 18:17 -34.06554 152.38899 13938 ft 313 kts 280°
2026-05-04 18:18 -34.06313 152.36333 13684 ft 311 kts 280°
2026-05-04 18:18 -34.06068 152.33743 13434 ft 310 kts 281°
2026-05-04 18:18 -34.05822 152.31160 13193 ft 309 kts 281°
2026-05-04 18:18 -34.05577 152.28590 12947 ft 308 kts 281°
2026-05-04 18:19 -34.05089 152.23480 12459 ft 306 kts 281°
2026-05-04 18:19 -34.04843 152.20923 12213 ft 305 kts 281°
2026-05-04 18:19 -34.04602 152.18411 11970 ft 305 kts 281°
2026-05-04 18:20 -34.04358 152.15878 11725 ft 302 kts 281°
2026-05-04 18:20 -34.04119 152.13394 11482 ft 300 kts 281°
2026-05-04 18:20 -34.03876 152.10890 11235 ft 299 kts 281°
2026-05-04 18:20 -34.03636 152.08418 10991 ft 299 kts 280°
2026-05-04 18:21 -34.03394 152.05933 10744 ft 298 kts 280°
2026-05-04 18:21 -34.03146 152.03445 10493 ft 296 kts 281°
2026-05-04 18:21 -34.02900 152.01004 10255 ft 296 kts 280°
2026-05-04 18:21 -34.02652 151.98534 10016 ft 295 kts 281°
2026-05-04 18:22 -34.02407 151.96101 9814 ft 293 kts 281°
2026-05-04 18:22 -34.02162 151.93672 9635 ft 294 kts 280°
2026-05-04 18:22 -34.01913 151.91211 9452 ft 295 kts 280°
2026-05-04 18:22 -34.01664 151.88754 9278 ft 294 kts 280°
2026-05-04 18:23 -34.01418 151.86325 9115 ft 294 kts 280°
2026-05-04 18:23 -34.01169 151.83872 8943 ft 294 kts 281°
2026-05-04 18:23 -34.00923 151.81453 8758 ft 293 kts 280°
2026-05-04 18:23 -34.00675 151.79025 8579 ft 294 kts 280°
2026-05-04 18:24 -34.00424 151.76573 8396 ft 293 kts 280°
2026-05-04 18:24 -34.00176 151.74146 8225 ft 292 kts 280°
2026-05-04 18:24 -33.99927 151.71733 8052 ft 291 kts 280°
2026-05-04 18:24 -33.99677 151.69302 7868 ft 292 kts 280°
2026-05-04 18:25 -33.99427 151.66884 7691 ft 292 kts 280°
2026-05-04 18:25 -33.99180 151.64485 7520 ft 292 kts 280°
2026-05-04 18:25 -33.98929 151.62059 7327 ft 288 kts 280°
2026-05-04 18:25 -33.98687 151.59715 7150 ft 279 kts 280°
2026-05-04 18:26 -33.98452 151.57443 6974 ft 270 kts 280°
2026-05-04 18:26 -33.98222 151.55228 6790 ft 262 kts 280°
2026-05-04 18:26 -33.97996 151.53069 6612 ft 256 kts 280°
2026-05-04 18:26 -33.97775 151.50958 6435 ft 258 kts 280°
2026-05-04 18:27 -33.97589 151.48782 6249 ft 258 kts 278°
2026-05-04 18:27 -33.97421 151.46670 6074 ft 257 kts 279°
2026-05-04 18:27 -33.97223 151.44536 5896 ft 256 kts 279°
2026-05-04 18:27 -33.97016 151.42406 5706 ft 255 kts 279°
2026-05-04 18:28 -33.96804 151.40297 5525 ft 255 kts 279°
2026-05-04 18:28 -33.96585 151.38168 5339 ft 253 kts 279°
2026-05-04 18:28 -33.96368 151.36072 5151 ft 253 kts 279°
2026-05-04 18:28 -33.96146 151.33989 4971 ft 253 kts 280°
2026-05-04 18:29 -33.95914 151.31865 4795 ft 253 kts 280°
2026-05-04 18:29 -33.95676 151.29778 4616 ft 253 kts 280°
2026-05-04 18:29 -33.95434 151.27698 4437 ft 252 kts 280°
2026-05-04 18:29 -33.95184 151.25604 4256 ft 252 kts 280°
2026-05-04 18:30 -33.94680 151.21443 3984 ft 250 kts 280°
2026-05-04 18:30 -33.94420 151.19351 3980 ft 251 kts 280°
2026-05-04 18:30 -33.94269 151.17267 3966 ft 252 kts 265°
2026-05-04 18:31 -33.94617 151.15189 3976 ft 255 kts 258°
2026-05-04 18:31 -33.95045 151.13141 3976 ft 254 kts 258°
2026-05-04 18:31 -33.95630 151.11142 3959 ft 255 kts 240°
2026-05-04 18:31 -33.96901 151.09619 3822 ft 263 kts 213°
2026-05-04 18:32 -33.98644 151.08974 3554 ft 267 kts 185°
2026-05-04 18:32 -34.00491 151.09276 3299 ft 267 kts 169°
2026-05-04 18:32 -34.02304 151.09827 3050 ft 266 kts 168°
2026-05-04 18:32 -34.04067 151.10384 2986 ft 265 kts 168°
2026-05-04 18:33 -34.05868 151.10959 2977 ft 266 kts 168°
2026-05-04 18:33 -34.07658 151.11522 2976 ft 266 kts 168°
2026-05-04 18:33 -34.09420 151.12074 2966 ft 255 kts 168°
2026-05-04 18:33 -34.11098 151.12607 2965 ft 241 kts 168°
2026-05-04 18:34 -34.12613 151.13335 2965 ft 229 kts 154°
2026-05-04 18:34 -34.13986 151.14262 2969 ft 226 kts 153°
2026-05-04 18:34 -34.15354 151.15205 2966 ft 227 kts 153°
2026-05-04 18:34 -34.16703 151.16190 2960 ft 228 kts 143°
2026-05-04 18:35 -34.17649 151.17731 2821 ft 232 kts 110°
2026-05-04 18:35 -34.17767 151.19663 2620 ft 231 kts 76°
2026-05-04 18:35 -34.17020 151.21327 2418 ft 230 kts 41°
2026-05-04 18:35 -34.15678 151.22391 2225 ft 226 kts 18°
2026-05-04 18:36 -34.14169 151.22624 2026 ft 217 kts 349°
2026-05-04 18:36 -34.12692 151.22301 1974 ft 214 kts 343°
2026-05-04 18:36 -34.11251 151.21916 1968 ft 206 kts 342°
2026-05-04 18:36 -34.09917 151.21561 1959 ft 187 kts 342°
2026-05-04 18:37 -34.08695 151.21237 1960 ft 169 kts 341°
2026-05-04 18:37 -34.07592 151.20949 1968 ft 154 kts 340°
2026-05-04 18:37 -34.06560 151.20677 1973 ft 152 kts 341°
2026-05-04 18:37 -34.05503 151.20404 1823 ft 155 kts 341°
2026-05-04 18:38 -34.04450 151.20134 1627 ft 154 kts 341°
2026-05-04 18:38 -34.03408 151.19870 1432 ft 153 kts 342°
2026-05-04 18:38 -34.02376 151.19606 1233 ft 151 kts 339°
2026-05-04 18:38 -34.01362 151.19296 1004 ft 149 kts 342°
2026-05-04 18:39 -34.00343 151.19067 812 ft 148 kts 343°
2026-05-04 18:39 -33.99337 151.18814 603 ft 147 kts 341°
2026-05-04 18:39 -33.98330 151.18549 404 ft 147 kts 343°
2026-05-04 18:39 -33.97351 151.18303 226 ft 143 kts 344°
2026-05-04 18:40 -33.96376 151.18051 51 ft 142 kts 344°
2026-05-04 18:40 -33.95501 151.17825 22 ft 106 kts 347°
2026-05-04 18:40 -33.94923 151.17674 27 ft 62 kts 348°
2026-05-04 18:40 -33.94618 151.17590 30 ft 32 kts 343°
2026-05-04 18:41 -33.94460 151.17494 28 ft 22 kts 323°
2026-05-04 18:41 -33.94357 151.17387 28 ft 17 kts 317°
2026-05-04 18:41 -33.94270 151.17307 27 ft 15 kts 339°
2026-05-04 18:41 -33.94161 151.17273 26 ft 16 kts 347°
2026-05-04 18:42 -33.94058 151.17247 26 ft 14 kts 348°
2026-05-04 18:42 -33.93988 151.17209 26 ft 8 kts 293°
2026-05-04 18:42 -33.93991 151.17149 28 ft 6 kts 269°
2026-05-04 18:42 -33.93957 151.17104 29 ft 9 kts 339°
2026-05-04 18:43 -33.93879 151.17078 29 ft 11 kts 347°
2026-05-04 18:43 -33.93804 151.17059 29 ft 10 kts 348°
2026-05-04 18:43 -33.93745 151.17044 30 ft 5 kts 347°
2026-05-04 18:43 -33.93724 151.17032 30 ft 2 kts 315°
2026-05-04 18:44 -33.93718 151.17017 31 ft 1 kts 281°
2026-05-04 18:44 -33.93718 151.17009 31 ft 2 kts 264°
2026-05-04 18:44 -33.93729 151.16959 32 ft 4 kts 256°
2026-05-04 18:44 -33.93731 151.16946 33 ft 0 kts 255°